• In Czech Republic
  • List of Countries
  • For 7 days
  • Water Temperature
  • Satellite Maps
  • Weather Map
  • Weather Widgets
  • user-avatar
    Login

    Hourly Weather Nallıhan

    Today, 19 June, Tuesday

    Time Temperature Precipitation Wind Pressure Humidity
    00:00 +19°C° 0 mm 1 mps 701 mmHg 87%
    01:00 +19°C° 0 mm 1 mps 701 mmHg 88%
    02:00 +18°C° 0 mm 1 mps 701 mmHg 90%
    03:00 +18°C° 0 mm 1 mps 701 mmHg 90%
    04:00 +18°C° 0 mm 1 mps 701 mmHg 90%
    05:00 +18°C° 0 mm 1 mps 702 mmHg 91%
    06:00 +20°C° 0 mm 1 mps 702 mmHg 84%
    07:00 +21°C° 0 mm 1 mps 702 mmHg 77%
    08:00 +23°C° 0 mm 1 mps 703 mmHg 69%
    09:00 +24°C° 0.1 mm 1 mps 703 mmHg 64%
    10:00 +25°C° 0.1 mm 1 mps 703 mmHg 58%
    11:00 +26°C° 0.1 mm 1 mps 703 mmHg 52%
    12:00 +27°C° 0.5 mm 1 mps 703 mmHg 51%
    13:00 +27°C° 0.5 mm 2 mps 703 mmHg 51%
    14:00 +28°C° 0.5 mm 2 mps 702 mmHg 50%
    15:00 +28°C° 0.7 mm 2 mps 702 mmHg 52%
    16:00 +27°C° 0.7 mm 3 mps 702 mmHg 55%
    17:00 +27°C° 0.7 mm 3 mps 702 mmHg 58%
    18:00 +25°C° 0.7 mm 3 mps 702 mmHg 64%
    19:00 +24°C° 0.7 mm 3 mps 702 mmHg 70%
    20:00 +23°C° 0.7 mm 2 mps 702 mmHg 77%
    21:00 +21°C° 0.1 mm 2 mps 703 mmHg 79%
    22:00 +21°C° 0.1 mm 2 mps 703 mmHg 82%
    23:00 +20°C° 0.1 mm 2 mps 703 mmHg 84%

    Tomorrow, 20 June, Wednesday

    Time Temperature Precipitation Wind Pressure Humidity
    00:00 +20°C° 0.1 mm 2 mps 703 mmHg 85%
    01:00 +19°C° 0.1 mm 2 mps 703 mmHg 86%
    02:00 +20°C° 0.1 mm 1 mps 703 mmHg 87%
    03:00 +20°C° 0 mm 1 mps 703 mmHg 88%
    04:00 +20°C° 0 mm 1 mps 703 mmHg 89%
    05:00 +19°C° 0 mm 1 mps 704 mmHg 89%
    06:00 +21°C° 0.1 mm 1 mps 704 mmHg 83%
    07:00 +21°C° 0.1 mm 2 mps 704 mmHg 78%
    08:00 +23°C° 0.1 mm 2 mps 704 mmHg 72%
    09:00 +24°C° 0.5 mm 2 mps 705 mmHg 67%
    10:00 +26°C° 0.5 mm 2 mps 705 mmHg 61%
    11:00 +27°C° 0.5 mm 2 mps 705 mmHg 56%
    12:00 +27°C° 0.9 mm 2 mps 705 mmHg 56%
    13:00 +28°C° 0.9 mm 2 mps 705 mmHg 56%
    14:00 +28°C° 0.9 mm 3 mps 704 mmHg 55%
    15:00 +27°C° 0.9 mm 3 mps 704 mmHg 58%
    16:00 +27°C° 0.9 mm 3 mps 704 mmHg 60%
    17:00 +27°C° 0.9 mm 3 mps 704 mmHg 62%
    18:00 +25°C° 0.6 mm 3 mps 704 mmHg 68%
    19:00 +24°C° 0.6 mm 3 mps 704 mmHg 73%
    20:00 +23°C° 0.6 mm 2 mps 704 mmHg 78%
    21:00 +21°C° 0.5 mm 2 mps 704 mmHg 80%
    22:00 +21°C° 0.5 mm 2 mps 704 mmHg 82%
    23:00 +22°C° 0.5 mm 1 mps 705 mmHg 84%

    Day after tomorrow, 21 June, Thursday

    Time Temperature Precipitation Wind Pressure Humidity
    00:00 +21°C° 0.2 mm 1 mps 705 mmHg 84%
    01:00 +21°C° 0.2 mm 1 mps 704 mmHg 84%
    02:00 +21°C° 0.2 mm 1 mps 704 mmHg 84%
    03:00 +21°C° 0.2 mm 1 mps 704 mmHg 84%
    04:00 +21°C° 0.2 mm 1 mps 704 mmHg 85%
    05:00 +21°C° 0.2 mm 1 mps 704 mmHg 86%
    06:00 +22°C° 0.4 mm 1 mps 704 mmHg 80%
    07:00 +23°C° 0.4 mm 1 mps 704 mmHg 75%
    08:00 +24°C° 0.4 mm 1 mps 704 mmHg 69%
    09:00 +25°C° 0.9 mm 1 mps 704 mmHg 65%
    10:00 +26°C° 0.9 mm 1 mps 704 mmHg 60%
    11:00 +27°C° 0.9 mm 1 mps 704 mmHg 56%
    12:00 +27°C° 1.2 mm 2 mps 704 mmHg 56%
    13:00 +27°C° 1.2 mm 2 mps 704 mmHg 56%
    14:00 +27°C° 1.2 mm 2 mps 703 mmHg 57%
    15:00 +27°C° 1 mm 2 mps 703 mmHg 59%
    16:00 +27°C° 1 mm 2 mps 703 mmHg 61%
    17:00 +26°C° 1 mm 2 mps 703 mmHg 63%
    18:00 +25°C° 0.6 mm 2 mps 703 mmHg 67%
    19:00 +24°C° 0.6 mm 2 mps 703 mmHg 70%
    20:00 +23°C° 0.6 mm 2 mps 703 mmHg 74%
    21:00 +23°C° 0.2 mm 1 mps 703 mmHg 76%
    22:00 +22°C° 0.2 mm 1 mps 703 mmHg 78%
    23:00 +22°C° 0.2 mm 1 mps 703 mmHg 80%

    22 June, Friday

    Time Temperature Precipitation Wind Pressure Humidity
    00:00 +21°C° 0.2 mm 1 mps 703 mmHg 81%
    01:00 +21°C° 0.2 mm 1 mps 702 mmHg 82%
    02:00 +21°C° 0.2 mm 1 mps 702 mmHg 83%
    03:00 +20°C° 0.1 mm 1 mps 702 mmHg 84%
    04:00 +20°C° 0.1 mm 1 mps 702 mmHg 85%
    05:00 +20°C° 0.1 mm 1 mps 702 mmHg 85%
    06:00 +21°C° 0.2 mm 1 mps 702 mmHg 79%
    07:00 +23°C° 0.2 mm 1 mps 703 mmHg 73%
    08:00 +24°C° 0.2 mm 2 mps 703 mmHg 67%
    09:00 +25°C° 0.3 mm 2 mps 703 mmHg 63%
    10:00 +26°C° 0.3 mm 2 mps 703 mmHg 58%
    11:00 +27°C° 0.3 mm 3 mps 703 mmHg 54%
    12:00 +27°C° 0.9 mm 3 mps 702 mmHg 54%
    13:00 +27°C° 0.9 mm 3 mps 702 mmHg 54%
    14:00 +28°C° 0.9 mm 3 mps 702 mmHg 54%
    15:00 +27°C° 0.8 mm 3 mps 702 mmHg 56%
    16:00 +27°C° 0.8 mm 3 mps 702 mmHg 58%
    17:00 +26°C° 0.8 mm 3 mps 702 mmHg 60%
    18:00 +25°C° 0.4 mm 3 mps 702 mmHg 64%
    19:00 +24°C° 0.4 mm 3 mps 702 mmHg 69%
    20:00 +23°C° 0.4 mm 2 mps 702 mmHg 73%
    21:00 +21°C° 0.1 mm 2 mps 702 mmHg 74%
    22:00 +20°C° 0.1 mm 2 mps 702 mmHg 76%
    23:00 +20°C° 0.1 mm 2 mps 702 mmHg 77%

    23 June, Saturday

    Time Temperature Precipitation Wind Pressure Humidity
    00:00 +19°C° 0 mm 2 mps 702 mmHg 77%
    01:00 +20°C° 0 mm 1 mps 702 mmHg 77%
    02:00 +20°C° 0 mm 1 mps 702 mmHg 76%
    03:00 +19°C° 0 mm 1 mps 702 mmHg 76%
    04:00 +19°C° 0 mm 1 mps 702 mmHg 75%
    05:00 +19°C° 0 mm 1 mps 702 mmHg 75%
    06:00 +20°C° 0 mm 2 mps 702 mmHg 67%
    07:00 +21°C° 0 mm 2 mps 703 mmHg 59%
    08:00 +24°C° 0 mm 2 mps 703 mmHg 52%
    09:00 +25°C° 0 mm 3 mps 703 mmHg 48%
    10:00 +27°C° 0 mm 3 mps 703 mmHg 45%
    11:00 +28°C° 0 mm 3 mps 703 mmHg 42%
    12:00 +28°C° 0.2 mm 4 mps 703 mmHg 44%
    13:00 +28°C° 0.2 mm 4 mps 703 mmHg 46%
    14:00 +28°C° 0.2 mm 5 mps 703 mmHg 48%
    15:00 +28°C° 0.4 mm 5 mps 703 mmHg 52%
    16:00 +27°C° 0.4 mm 5 mps 703 mmHg 56%
    17:00 +26°C° 0.4 mm 5 mps 703 mmHg 61%
    18:00 +25°C° 0.6 mm 4 mps 704 mmHg 67%
    19:00 +22°C° 0.6 mm 3 mps 704 mmHg 73%
    20:00 +21°C° 0.6 mm 3 mps 704 mmHg 80%
    21:00 +21°C° 0.2 mm 3 mps 704 mmHg 82%
    22:00 +20°C° 0.2 mm 2 mps 704 mmHg 84%
    23:00 +20°C° 0.2 mm 2 mps 705 mmHg 86%

    24 June, Sunday

    Time Temperature Precipitation Wind Pressure Humidity
    00:00 +20°C° 0.2 mm 2 mps 705 mmHg 87%
    01:00 +19°C° 0.2 mm 2 mps 705 mmHg 87%
    02:00 +19°C° 0.2 mm 2 mps 705 mmHg 88%
    03:00 +19°C° 0.1 mm 2 mps 705 mmHg 89%
    04:00 +19°C° 0.1 mm 2 mps 705 mmHg 90%
    05:00 +18°C° 0.1 mm 2 mps 705 mmHg 90%
    06:00 +19°C° 0 mm 2 mps 705 mmHg 85%
    07:00 +20°C° 0 mm 2 mps 705 mmHg 80%
    08:00 +21°C° 0 mm 2 mps 705 mmHg 75%
    09:00 +23°C° 0.1 mm 2 mps 706 mmHg 70%
    10:00 +24°C° 0.1 mm 2 mps 706 mmHg 65%
    11:00 +25°C° 0.1 mm 1 mps 706 mmHg 61%
    12:00 +26°C° 0.3 mm 2 mps 705 mmHg 60%
    13:00 +26°C° 0.3 mm 2 mps 705 mmHg 59%
    14:00 +27°C° 0.3 mm 2 mps 705 mmHg 58%
    15:00 +26°C° 0.2 mm 2 mps 705 mmHg 60%
    16:00 +26°C° 0.2 mm 3 mps 705 mmHg 62%
    17:00 +26°C° 0.2 mm 3 mps 705 mmHg 64%
    18:00 +24°C° 0 mm 3 mps 705 mmHg 68%
    19:00 +22°C° 0 mm 3 mps 705 mmHg 73%
    20:00 +21°C° 0 mm 3 mps 705 mmHg 77%
    21:00 +21°C° 0 mm 2 mps 705 mmHg 80%
    22:00 +20°C° 0 mm 2 mps 705 mmHg 82%
    23:00 +19°C° 0 mm 2 mps 705 mmHg 85%
    Show more